FLOCK 2K-21 (42860 NORAD) Tracking and Keplerian Element Data

This shows tracking and keplerian element data for the satellite.

Feedback or suggestion? Click here.




ElementValue
Catalog42860
NameFLOCK 2K-21
Epoch Orbit3278
Epoch Day45.3905153
Epoch Year2018
RAAN308.1747
Inclination96.9927
Eccentricity0.0010028
Argument of Perigee187.0495
Mean Anonmoly173.0611
Mean Motion15.35643348
Decay Rate7.018E-05
L11 42860U 17042AM 18045.39051530 .00007018 00000-0 20436-3 0 9992
L22 42860 96.9927 308.1747 0010028 187.0495 173.0611 15.35643348 32780

Live tracking and technical data element details for FLOCK 2K-21 (NORAD 42860). FLOCK 2K-21 can be tracked NOW for your location showing map with azimuth and elevation plus other details from your city location.

Track the satellite on the map from your city or location and see movement details for azimuth, elevation, latitude, longitude, range, height, and movement on the map or in text.







IsCatalogInMostPopularTable: catalog: 42860, numindb: 67
Update: records affected: 1



GetName: 42860 FLOCK 2K-21

Hit Count: updated at: Sat, 21 Jul 2018 08:06:12 GMT